User: anonymous   Login
Location: Emblem
(62.4273°N, 6.4710°E)
Time: 12:07:02
(UTC+01:00)
Language:

A-11 Canister half - Orbit

View from above orbital plane
View from above orbital plane
View from above satellite
View from above satellite

Ground track
Ground track

The orbit data is extracted from the following two-line orbital elements,

1    51U 60009C   24053.55147357 -.00000013  00000-0  69352-3 0  9995
2    51  47.2123 145.9412 0109473 201.7486 157.8632 12.18321249828064
Epoch (UTC): 22 February 2024 13:14:07
Eccentricity: 0.0109473
inclination: 47.2123°
perigee height: 1512 km
apogee height: 1687 km
right ascension of ascending node: 145.9412°
argument of perigee: 201.7486°
revolutions per day: 12.18321249
mean anomaly at epoch: 157.8632°
orbit number at epoch: 82806

The dashed part of the orbit path shows where the satellite is in the earth's shadow,  

DLR